[[{"header":{"parameterUnit":"m.s-1","parameterCategory":1,"la1":30.2991,"la2":30.254,"lo1":-89.0895,"lo2":-89.0444,"dy":0.0017,"dx":0.0017,"nx":28,"ny":28,"refTime":"2025-05-25T21:00:00:Z","depth":0,"parameterNumber":2,"parameterNumberName":"U-component_of_WINDS"},"data":[0,0,0,0,0,0,0,0,0,0,0,0,0,0,0,0,0,0,0,0,0,0,0,0,0,0,0,0,0,0,0,0,0,0,0,0,0,0,0,0,0,0,0,0,0,0,0,0,0,0,0,0,0,0,0,0,0,0,0.3077,0.3078,0,0.3123,0.3123,0.3124,0.3123,0.3123,0.3122,0.3122,0.3166,0.3168,0.317,0,0,0,0,0,0,0,0,0,0,0,0,0,0.2987,0.2989,0.3077,0.3078,0.3078,0.3122,0.3123,0.3124,0.3123,0.3123,0.3122,0.3121,0.3166,0.3168,0.317,0,0,0,0,0,0,0,0,0,0,0,0,0,0.3029,0.2989,0.3077,0.3083,0.3084,0.3122,0.3123,0.3124,0.3124,0.3123,0.3122,0.3121,0.3165,0.3167,0.317,0.3204,0,0,0.3178,0.3179,0,0,0,0,0,0,0,0,0.3026,0.3032,0.3082,0.3083,0.3084,0.3116,0.3108,0.3151,0.3124,0.3109,0.3122,0.3121,0.315,0.3154,0.3164,0.3206,0.3208,0.3178,0.318,0.3181,0.3182,0,0,0,0,0,0,0,0.3023,0.303,0.3095,0.3083,0.3084,0.3083,0.3088,0.3116,0.3134,0.311,0.311,0.3116,0.3151,0.3162,0.3165,0.3208,0.3178,0.318,0.3182,0.3183,0.3278,0.3279,0,0,0,0,0,0,0.3019,0.3027,0.3093,0.3096,0.3053,0.3085,0.3091,0.3107,0.3133,0.3137,0.3116,0.3115,0.3158,0.3162,0.3167,0.3207,0.3181,0.3183,0.3185,0.3277,0.3278,0.3279,0,0,0,0,0,0,0.3018,0.3025,0.3092,0.3062,0.307,0.3088,0.3106,0.3108,0.312,0.3138,0.3141,0.3125,0.3157,0.3163,0.3194,0.3209,0.3184,0.3187,0.3276,0.3278,0.3279,0.3289,0,0,0,0,0,0,0.3015,0.3025,0.3038,0.3062,0.3072,0.3119,0.3107,0.311,0.3124,0.3124,0.3147,0.315,0.3157,0.319,0.3197,0.3212,0.3189,0.3275,0.3277,0.3278,0.3287,0.329,0.3293,0,0,0,0,0,0.3012,0.3039,0.3039,0.3047,0.309,0.312,0.3126,0.3134,0.3125,0.3139,0.3151,0.3149,0.3206,0.3194,0.3201,0.3217,0.3274,0.3276,0.3278,0.3286,0.329,0.3293,0,0,0,0,0,0,0.3016,0.3043,0.3043,0.3079,0.3097,0.312,0.3137,0.3138,0.3159,0.3157,0.3166,0.3171,0.3202,0.3212,0.3198,0.325,0.3239,0.3243,0.3242,0.3246,0.3249,0.3245,0.3191,0,0,0,0,0,0.3021,0.3045,0.3066,0.3096,0.3105,0.312,0.3133,0.3138,0.3157,0.3165,0.3179,0.3197,0.3219,0.3233,0.3254,0.3289,0.3293,0.3303,0.3306,0.3308,0.3311,0.3329,0.3333,0.3287,0.3287,0.3287,0,0,0.3032,0.305,0.3064,0.3097,0.3112,0.3135,0.3126,0.3151,0.3168,0.3168,0.3199,0.3209,0.323,0.3263,0.3278,0.3272,0.3325,0.3311,0.3313,0.3315,0.3332,0.3336,0.334,0.3288,0.3288,0.3288,0,0,0.3064,0.308,0.3106,0.3121,0.3144,0.3153,0.3159,0.3182,0.3189,0.322,0.322,0.3239,0.3277,0.3292,0.3304,0.3339,0.3338,0.3346,0.3361,0.3378,0.3382,0.3385,0.3397,0.3401,0.3349,0.3349,0.3349,0,0.3075,0.311,0.3119,0.3144,0.3158,0.316,0.3186,0.32,0.3228,0.3237,0.3231,0.3278,0.3292,0.3327,0.3335,0.3346,0.3352,0.3343,0.3381,0.3384,0.3387,0.3399,0.3403,0.335,0.335,0.335,0.335,0,0.3122,0.3146,0.3164,0.3192,0.3208,0.3233,0.3245,0.326,0.3263,0.3272,0.3303,0.3319,0.3343,0.3352,0.3355,0.3388,0.3384,0.3379,0.3368,0.3393,0.3403,0.3408,0.3351,0.3351,0.335,0.335,0,0,0.3158,0.3189,0.3196,0.3208,0.3233,0.3251,0.3276,0.33,0.3312,0.3331,0.3351,0.3382,0.3378,0.3392,0.3397,0.3412,0.3438,0.3405,0.3406,0.341,0.3473,0.3476,0.3481,0.3437,0.3438,0.3439,0.3471,0,0.3191,0.3236,0.3244,0.3283,0.3305,0.3306,0.3327,0.3344,0.3353,0.3373,0.3382,0.3404,0.3397,0.3405,0.3421,0.3431,0.345,0.3429,0.3455,0.3456,0.3449,0.3486,0.349,0.3519,0.3475,0.3476,0.3476,0,0.3237,0.3257,0.3298,0.3319,0.3328,0.3347,0.3369,0.3388,0.3407,0.3412,0.3427,0.343,0.3454,0.3442,0.3475,0.346,0.3471,0.3478,0.3479,0.3481,0.3467,0.3489,0.3529,0.3533,0.3483,0.3483,0.3482,0,0.3258,0.3296,0.3325,0.3335,0.336,0.3373,0.3384,0.3402,0.3415,0.3434,0.3443,0.3464,0.3476,0.3492,0.3499,0.349,0.3531,0.352,0.3536,0.3535,0.3544,0.3543,0.3586,0.3552,0.3552,0.3552,0.3552,0,0.3294,0.3319,0.3334,0.3352,0.3379,0.3388,0.3414,0.3425,0.344,0.3459,0.3462,0.3479,0.3489,0.3507,0.3513,0.3539,0.3544,0.3549,0.355,0.3548,0.3548,0.3555,0.3553,0.3553,0.3553,0.3553,0.3552,0,0.3322,0.3334,0.3365,0.3387,0.3392,0.3411,0.3429,0.3446,0.3454,0.3478,0.3484,0.3498,0.352,0.3529,0.3556,0.356,0.3589,0.3589,0.3583,0.3584,0.3598,0.3596,0.3647,0.3653,0.3616,0.3616,0.3616,0,0.3345,0.3364,0.3387,0.34,0.3411,0.3433,0.3446,0.3455,0.3469,0.3491,0.3505,0.3527,0.3545,0.358,0.3591,0.3611,0.3612,0.3628,0.3615,0.3612,0.3611,0.3609,0.3611,0.363,0.363,0.3631,0.3631,0,0.3382,0.3387,0.3407,0.3429,0.3446,0.3464,0.3481,0.3491,0.3502,0.3518,0.3541,0.3555,0.3582,0.3603,0.3624,0.3634,0.3634,0.3635,0.3639,0.3638,0.3633,0.3635,0.3589,0.3634,0.3633,0.3633,0.3633,0.3633,0.3408,0.3424,0.3443,0.3465,0.3479,0.3495,0.3511,0.3522,0.3542,0.3565,0.3569,0.3593,0.3609,0.3637,0.3648,0.3666,0.3662,0.3669,0.367,0.3671,0.3672,0.3631,0.367,0.367,0.367,0.367,0.3669,0,0.3445,0.3457,0.3477,0.3501,0.3518,0.3518,0.3536,0.355,0.3572,0.3588,0.3605,0.3631,0.3651,0.3664,0.3685,0.3696,0.3697,0.3701,0.37,0.3702,0.3675,0.3669,0.3701,0.3701,0.3701,0.3701,0.3701,0.3701,0.3466,0.3494,0.35,0.3534,0.3546,0.357,0.3581,0.3595,0.3607,0.3636,0.3653,0.3662,0.3676,0.3698,0.3716,0.3719,0.3726,0.3731,0.3734,0.3708,0.3704,0.3701,0.3695,0.3732,0.3733,0.3759,0.376,0.376]},{"header":{"parameterUnit":"m.s-1","parameterCategory":1,"la1":30.2991,"la2":30.254,"lo1":-89.0895,"lo2":-89.0444,"dy":0.0017,"dx":0.0017,"nx":28,"ny":28,"refTime":"2025-05-25T21:00:00:Z","depth":0,"parameterNumber":3,"parameterNumberName":"V-component_of_WINDS"},"data":[0,0,0,0,0,0,0,0,0,0,0,0,0,0,0,0,0,0,0,0,0,0,0,0,0,0,0,0,0,0,0,0,0,0,0,0,0,0,0,0,0,0,0,0,0,0,0,0,0,0,0,0,0,0,0,0,0,0,4.741,4.741,0,4.7417,4.7417,4.7417,4.7327,4.7324,4.7322,4.732,4.7324,4.7326,4.7329,0,0,0,0,0,0,0,0,0,0,0,0,0,4.7318,4.7321,4.741,4.741,4.7411,4.7417,4.7417,4.7417,4.7327,4.7324,4.7321,4.7319,4.7323,4.7326,4.7329,0,0,0,0,0,0,0,0,0,0,0,0,0,4.7345,4.7321,4.741,4.7367,4.7363,4.7417,4.7417,4.7417,4.7328,4.7324,4.7321,4.7317,4.7322,4.7326,4.7329,4.7425,0,0,4.734,4.7342,0,0,0,0,0,0,0,0,4.7344,4.7348,4.7373,4.737,4.7366,4.7367,4.7386,4.7419,4.7329,4.7341,4.732,4.7315,4.7341,4.7343,4.7352,4.7425,4.7425,4.7341,4.7343,4.7344,4.7345,0,0,0,0,0,0,0,4.7342,4.7348,4.7413,4.7373,4.7369,4.7346,4.7346,4.7392,4.7362,4.734,4.7333,4.7335,4.7338,4.7349,4.7352,4.7425,4.734,4.7344,4.7346,4.7347,4.7576,4.758,0,0,0,0,0,0,4.7346,4.7347,4.7413,4.7413,4.7345,4.7351,4.735,4.737,4.7361,4.7356,4.7338,4.7331,4.7345,4.7347,4.7351,4.7462,4.7344,4.7348,4.735,4.7572,4.7577,4.7581,0,0,0,0,0,0,4.7345,4.7353,4.7412,4.7378,4.7384,4.7356,4.7379,4.7372,4.7383,4.736,4.7354,4.7355,4.7342,4.7346,4.7407,4.7461,4.7349,4.7352,4.7568,4.7574,4.7579,4.7686,0,0,0,0,0,0,4.7342,4.7353,4.7389,4.738,4.7386,4.7469,4.7383,4.7375,4.739,4.738,4.7374,4.7369,4.7339,4.7402,4.7411,4.7464,4.7355,4.7563,4.7571,4.7577,4.7677,4.7694,4.7709,0,0,0,0,0,4.7339,4.7419,4.7392,4.74,4.7431,4.7472,4.7476,4.7441,4.7394,4.743,4.7416,4.7369,4.7454,4.7409,4.7418,4.7473,4.7559,4.7568,4.7577,4.767,4.7691,4.7709,0,0,0,0,0,0,4.7434,4.7416,4.7386,4.7465,4.7471,4.7457,4.7501,4.7464,4.7483,4.7473,4.7428,4.7427,4.7495,4.749,4.7441,4.7565,4.7498,4.7509,4.7566,4.7586,4.7602,4.7601,4.7358,0,0,0,0,0,4.7465,4.75,4.7482,4.7553,4.7558,4.753,4.7546,4.7519,4.7523,4.7524,4.7514,4.7519,4.7547,4.7566,4.759,4.7676,4.7673,4.7718,4.7734,4.7748,4.7758,4.7803,4.7822,4.7611,4.761,4.761,0,0,4.7527,4.7522,4.7547,4.7572,4.7573,4.7611,4.7532,4.7575,4.7602,4.753,4.7588,4.7581,4.7583,4.7657,4.7689,4.7655,4.7816,4.7759,4.777,4.7772,4.7814,4.7834,4.7852,4.7617,4.7615,4.7615,0,0,4.766,4.766,4.7719,4.7722,4.7726,4.7706,4.7721,4.7713,4.7706,4.7762,4.771,4.7741,4.779,4.7794,4.7803,4.7938,4.7896,4.7947,4.8031,4.8075,4.8092,4.8106,4.8155,4.8173,4.7957,4.7957,4.7958,0,4.7737,4.7792,4.7753,4.78,4.7813,4.7751,4.781,4.7815,4.7826,4.7836,4.7798,4.7858,4.7856,4.793,4.7963,4.7972,4.7987,4.7947,4.8093,4.8107,4.812,4.8165,4.8184,4.7964,4.7963,4.7962,4.7962,0,4.7886,4.7925,4.7972,4.7986,4.8003,4.8056,4.8026,4.8048,4.8019,4.8004,4.8063,4.8058,4.808,4.8096,4.8067,4.8166,4.8145,4.8101,4.8032,4.8147,4.8189,4.8206,4.7973,4.797,4.7968,4.7967,0,0,4.8078,4.8071,4.8088,4.8094,4.8094,4.8123,4.8173,4.8195,4.8216,4.8225,4.8266,4.8309,4.8268,4.8278,4.825,4.8289,4.8397,4.824,4.8239,4.8269,4.8505,4.8539,4.8559,4.8369,4.8372,4.8375,4.8505,0,4.8207,4.8293,4.826,4.8348,4.8383,4.8326,4.8369,4.8373,4.8361,4.8388,4.8373,4.8405,4.8349,4.8354,4.839,4.8376,4.8444,4.8366,4.8406,4.8408,4.8407,4.8581,4.8617,4.8739,4.8521,4.8524,4.8526,0,4.8369,4.8387,4.8479,4.8473,4.8486,4.8526,4.8544,4.8572,4.8575,4.8563,4.8575,4.8538,4.8586,4.8519,4.8584,4.8533,4.8547,4.8542,4.8546,4.8548,4.8474,4.8588,4.8778,4.8796,4.8551,4.8549,4.8548,0,4.85,4.8547,4.8608,4.8614,4.8609,4.8638,4.8637,4.8637,4.8653,4.8669,4.8679,4.87,4.8712,4.8729,4.8699,4.8652,4.8768,4.8698,4.8759,4.876,4.8786,4.8785,4.8981,4.8796,4.8796,4.8795,4.8795,0,4.8648,4.8706,4.8667,4.8704,4.8768,4.873,4.8793,4.8786,4.8787,4.8821,4.8772,4.8806,4.8764,4.8793,4.877,4.8828,4.8833,4.8825,4.8818,4.8829,4.883,4.8838,4.8828,4.88,4.8799,4.8798,4.8797,0,4.8805,4.8781,4.8843,4.8834,4.8833,4.888,4.8871,4.8905,4.8889,4.8934,4.8942,4.8917,4.8949,4.892,4.8951,4.8935,4.9012,4.8993,4.9011,4.9006,4.9069,4.9063,4.9276,4.9302,4.9101,4.9103,4.9104,0,4.89,4.8944,4.894,4.896,4.8962,4.8995,4.9011,4.8976,4.8994,4.9002,4.9036,4.9064,4.9084,4.9138,4.9122,4.9145,4.9126,4.9199,4.9129,4.9139,4.9127,4.9125,4.9129,4.9213,4.9216,4.9218,4.9219,0,4.9073,4.9059,4.9085,4.9107,4.9129,4.9144,4.9155,4.9174,4.9138,4.9161,4.9194,4.921,4.9242,4.927,4.9289,4.9286,4.9247,4.9241,4.9257,4.9269,4.9278,4.9274,4.905,4.9237,4.9235,4.9234,4.9233,4.9232,4.9202,4.9238,4.9241,4.9272,4.9277,4.9289,4.9321,4.9309,4.9336,4.936,4.9337,4.9376,4.9379,4.9399,4.9402,4.9433,4.9402,4.9424,4.943,4.9436,4.9445,4.9273,4.9436,4.9435,4.9435,4.9434,4.9434,0,4.9372,4.9371,4.94,4.9418,4.9442,4.9404,4.9415,4.9437,4.9473,4.9479,4.9501,4.9539,4.9566,4.9553,4.9577,4.9603,4.9586,4.9611,4.9608,4.9609,4.9471,4.9455,4.9625,4.9625,4.9625,4.9625,4.9624,4.9624,4.9463,4.9523,4.951,4.9571,4.957,4.9609,4.9619,4.9629,4.9634,4.9679,4.9702,4.9693,4.9691,4.9715,4.9738,4.9734,4.9745,4.9777,4.9765,4.9637,4.9618,4.96,4.9585,4.9779,4.9779,4.99,4.9902,4.9902]}]]